Driggs, ID

6:44 AM MDT on April 27, 2017 (GMT -0600)
Driggs

Weather History for KDIJ - November, 2012

Change the Weather History Date:

Friday, November 30, 2012

  Actual Average (KJAC) Record (KJAC)
Temperature  
Mean Temperature 38 °F -  
Max Temperature 41 °F 30 °F 51 °F (1999)
Min Temperature 34 °F 5 °F -20 °F (1979)
Degree Days  
Heating Degree Days 26    
Moisture  
Dew Point 34 °F    
Average Humidity 81    
Maximum Humidity 93    
Minimum Humidity 68    
Precipitation  
Precipitation 0.22 in - - ()
Sea Level Pressure  
Sea Level Pressure 29.85 in    
Wind  
Wind Speed 9 mph (SSW)    
Max Wind Speed 18 mph    
Max Gust Speed -    
Visibility 10 miles    
Events Rain    
Averages and records for this station are not official NWS values.
T = Trace of Precipitation, MM = Missing Value Source: NWS Daily Summary

Daily Weather History Graph

Daily Weather History Graph

Search for Another Location

Airport or City:

Trip Planner

Search our weather history database for the weather conditions in past years. The results will help you decide how hot, cold, wet, or windy it might be!

Date:

Astronomy

Nov. 30, 2012 Rise Set
Actual Time 7:37 AM MST 4:48 PM MST
Civil Twilight 7:05 AM MST 5:20 PM MST
Nautical Twilight 6:29 AM MST 5:56 PM MST
Astronomical Twilight 5:55 AM MST 6:31 PM MST
Moon 6:47 PM MST (11/30) 9:12 AM MST (11/30)
Length of Visible Light 10h 15m
Length of Day
9h 10m
Waning Gibbous, 96% of the Moon is Illuminated
Nov 30
Waning Gibbous
Dec 6
Last Quarter
Dec 13
New
Dec 19
First Quarter
Dec 28
Full

Hourly Weather History & Observations

Time (MST) Temp. Windchill Dew Point Humidity Pressure Visibility Wind Dir Wind Speed Gust Speed Precip Events Conditions
12:56 AM 37.9 °F 32.7 °F 30.0 °F 73% 29.92 in 10.0 mi SSE 6.9 mph - N/A   Overcast
1:56 AM 38.8 °F 35.4 °F 29.1 °F 68% 29.90 in 10.0 mi South 4.6 mph - N/A   Overcast
2:56 AM 38.8 °F 33.8 °F 30.0 °F 71% 29.88 in 10.0 mi SSE 6.9 mph - N/A   Overcast
3:56 AM 39.9 °F 33.9 °F 30.0 °F 68% 29.87 in 10.0 mi SSE 9.2 mph - N/A   Overcast
4:56 AM 39.9 °F 35.8 °F 30.0 °F 68% 29.87 in 10.0 mi South 5.8 mph - N/A   Overcast
5:56 AM 41.0 °F 38.0 °F 31.1 °F 68% 29.86 in 10.0 mi SSW 4.6 mph - N/A   Overcast
6:56 AM 39.9 °F 36.7 °F 31.1 °F 71% 29.87 in 10.0 mi SSW 4.6 mph - N/A   Overcast
7:56 AM 41.0 °F 35.2 °F 32.0 °F 70% 29.84 in 10.0 mi SSW 9.2 mph - N/A   Overcast
8:56 AM 41.0 °F 33.9 °F 34.0 °F 76% 29.85 in 10.0 mi SW 12.7 mph - 0.01 in Rain Light Rain
9:15 AM 39.2 °F 31.6 °F 35.6 °F 87% 29.93 in 10.0 mi SSW 12.7 mph - 0.00 in Rain Light Rain
9:49 AM 39.2 °F 32.0 °F 35.6 °F 87% 29.94 in 10.0 mi SSW 11.5 mph - 0.01 in   Overcast
9:56 AM 39.9 °F 33.9 °F 36.0 °F 86% 29.86 in 10.0 mi SSW 9.2 mph - 0.01 in Rain Light Rain
10:56 AM 41.0 °F 35.8 °F 36.0 °F 82% 29.83 in 10.0 mi South 8.1 mph - 0.02 in Rain Light Rain
11:56 AM 41.0 °F 32.2 °F 36.0 °F 82% 29.81 in 10.0 mi SSW 18.4 mph - 0.01 in Rain Light Rain
12:11 PM 41.0 °F 33.1 °F 35.6 °F 81% 29.89 in 10.0 mi SSW 15.0 mph - 0.00 in Rain Light Rain
12:23 PM 41.0 °F 33.5 °F 35.6 °F 81% 29.88 in 10.0 mi SSW 13.8 mph - 0.00 in Rain Light Rain
12:56 PM 41.9 °F 34.3 °F 36.0 °F 79% 29.79 in 10.0 mi SSW 15.0 mph - 0.01 in   Mostly Cloudy
1:38 PM 41.0 °F 32.8 °F 35.6 °F 81% 29.87 in 10.0 mi SSW 16.1 mph - 0.00 in Rain Light Rain
1:56 PM 39.9 °F 31.8 °F 36.0 °F 86% 29.78 in 10.0 mi SSW 15.0 mph - 0.01 in Rain Light Rain
2:56 PM 39.9 °F 31.8 °F 36.0 °F 86% 29.78 in 10.0 mi SSW 15.0 mph - 0.02 in Rain Light Rain
3:56 PM 39.9 °F 32.1 °F 36.0 °F 86% 29.78 in 10.0 mi SSW 13.8 mph - 0.02 in Rain Light Rain
4:39 PM 39.2 °F 32.0 °F 35.6 °F 87% 29.89 in 10.0 mi SSW 11.5 mph - 0.01 in   Overcast
4:56 PM 38.8 °F 32.1 °F 34.9 °F 86% 29.80 in 10.0 mi South 10.4 mph - 0.02 in Rain Light Rain
5:56 PM 38.8 °F 32.1 °F 34.9 °F 86% 29.79 in 10.0 mi South 10.4 mph - 0.01 in Rain Light Rain
6:56 PM 37.9 °F 32.7 °F 34.9 °F 89% 29.80 in 10.0 mi South 6.9 mph - 0.02 in   Overcast
8:56 PM 36.9 °F 32.2 °F 34.9 °F 93% 29.80 in 10.0 mi South 5.8 mph - 0.02 in   Overcast
9:56 PM 36.9 °F 34.3 °F 34.9 °F 93% 29.79 in 10.0 mi SSE 3.5 mph - 0.02 in   Overcast
10:05 PM 37.4 °F 34.9 °F 35.6 °F 93% 29.87 in 10.0 mi South 3.5 mph - 0.00 in   Overcast
11:56 PM 34.9 °F 28.3 °F 32.9 °F 92% 29.85 in 10.0 mi ESE 8.1 mph - 0.02 in   Overcast